Weather History for KAQW - March, 2013

Change the Weather History Date:

Friday, March 15, 2013

  Actual Average Record
Temperature  
Mean Temperature 26 °F -  
Max Temperature 36 °F 38 °F 57 °F (2009)
Min Temperature 18 °F 21 °F 18 °F (2013)
Degree Days  
Heating Degree Days 38    
Moisture  
Dew Point 19 °F    
Average Humidity 63    
Maximum Humidity 75    
Minimum Humidity 38    
Precipitation  
Precipitation 0.00 in - - ()
Sea Level Pressure  
Sea Level Pressure 29.72 in    
Wind  
Wind Speed 9 mph (West)    
Max Wind Speed 20 mph    
Max Gust Speed 34 mph    
Visibility 5 miles    
Events Snow    
Averages and records for this station are not official NWS values.
T = Trace of Precipitation, MM = Missing Value Source: NWS Daily Summary

Daily Weather History Graph

Daily Weather History Graph

Search for Another Location

Airport or City:

Trip Planner

Search our weather history database for the weather conditions in past years. The results will help you decide how hot, cold, wet, or windy it might be!

Date:

Astronomy

Mar. 15, 2013 Rise Set
Actual Time 7:04 AM EDT 6:59 PM EDT
Civil Twilight 6:36 AM EDT 7:27 PM EDT
Nautical Twilight 6:03 AM EDT 8:00 PM EDT
Astronomical Twilight 5:30 AM EDT 8:33 PM EDT
Moon 8:46 AM EDT (3/15) 11:17 PM EDT (3/15)
Length of Visible Light 12h 51m
Length of Day
11h 55m
Waxing Crescent, 15% of the Moon is Illuminated
Mar 15
Waxing Crescent
Mar 19
First Quarter
Mar 27
Full
Apr 3
Last Quarter
Apr 10
New

Hourly Weather History & Observations

Time (EDT) Temp. Windchill Dew Point Humidity Pressure Visibility Wind Dir Wind Speed Gust Speed Precip Events Conditions
12:52 AM 21.9 °F 11.7 °F 10.9 °F 63% 29.90 in 10.0 mi West 9.2 mph 18.4 mph 0.00 in   Overcast
1:52 AM 21.9 °F 14.5 °F 10.0 °F 60% 29.90 in 10.0 mi Variable 5.8 mph - N/A   Overcast
2:52 AM 21.0 °F 10.6 °F 9.0 °F 60% 29.91 in 5.0 mi WNW 9.2 mph - 0.00 in Snow Light Snow
3:04 AM 21.2 °F 10.9 °F 8.6 °F 58% 29.87 in 9.0 mi WNW 9.2 mph - 0.00 in   Overcast
3:52 AM 19.9 °F 10.1 °F 6.1 °F 55% 29.90 in 10.0 mi West 8.1 mph - 0.00 in   Mostly Cloudy
4:52 AM 19.9 °F 10.1 °F 5.0 °F 52% 29.91 in 10.0 mi West 8.1 mph 16.1 mph N/A   Clear
5:52 AM 19.0 °F 9.0 °F 5.0 °F 54% 29.91 in 10.0 mi WSW 8.1 mph - N/A   Clear
6:52 AM 18.0 °F 7.7 °F 5.0 °F 57% 29.91 in 10.0 mi WSW 8.1 mph - N/A   Clear
7:52 AM 19.0 °F 13.9 °F 5.0 °F 54% 29.90 in 10.0 mi WNW 3.5 mph - N/A   Clear
8:52 AM 21.9 °F 14.5 °F 3.9 °F 46% 29.89 in 10.0 mi NNW 5.8 mph - N/A   Clear
9:52 AM 25.0 °F 19.3 °F 3.9 °F 41% 29.87 in 10.0 mi Variable 4.6 mph - N/A   Scattered Clouds
10:52 AM 28.9 °F 19.8 °F 8.1 °F 41% 29.84 in 10.0 mi WSW 10.4 mph - N/A   Overcast
11:52 AM 30.9 °F 26.2 °F 8.1 °F 38% 29.80 in 10.0 mi Variable 4.6 mph - N/A   Overcast
12:52 PM 32.0 °F 24.8 °F 10.0 °F 40% 29.76 in 10.0 mi West 8.1 mph - N/A   Overcast
1:52 PM 35.1 °F 29.3 °F 14.0 °F 42% 29.72 in 10.0 mi West 6.9 mph - N/A   Overcast
2:52 PM 34.0 °F 24.2 °F 17.1 °F 50% 29.70 in 6.0 mi WSW 15.0 mph 23.0 mph 0.00 in Snow Light Snow
3:02 PM 33.8 °F 27.7 °F 17.6 °F 52% 29.67 in 5.0 mi West 6.9 mph 19.6 mph 0.00 in Snow Light Snow
3:24 PM 32.0 °F 24.2 °F 21.2 °F 64% 29.66 in 1.8 mi WSW 9.2 mph 16.1 mph 0.00 in Snow Light Snow
3:44 PM 32.0 °F 24.2 °F 24.8 °F 75% 29.65 in 1.2 mi West 9.2 mph - 0.00 in Snow Light Snow
3:52 PM 33.1 °F 26.1 °F 25.0 °F 72% 29.68 in 1.5 mi West 8.1 mph - 0.00 in Snow Light Snow
4:10 PM 33.8 °F 27.0 °F 24.8 °F 70% 29.64 in 1.2 mi West 8.1 mph - 0.00 in Snow Light Snow
4:18 PM 33.8 °F 29.6 °F 24.8 °F 70% 29.64 in 1.8 mi West 4.6 mph - 0.00 in Snow Light Snow
4:26 PM 33.8 °F 27.7 °F 24.8 °F 70% 29.64 in 2.5 mi West 6.9 mph - 0.00 in Snow Light Snow
4:41 PM 32.0 °F 26.4 °F 24.8 °F 75% 29.64 in 1.5 mi West 5.8 mph - 0.00 in Snow Light Snow
4:49 PM 32.0 °F 23.6 °F 24.8 °F 75% 29.64 in 1.2 mi West 10.4 mph - 0.00 in Snow Light Snow
4:52 PM 32.0 °F 24.8 °F 25.0 °F 75% 29.66 in 1.5 mi West 8.1 mph - 0.00 in Snow Light Snow
5:19 PM 33.8 °F 26.4 °F 24.8 °F 70% 29.63 in 2.5 mi West 9.2 mph - 0.00 in Snow Light Snow
5:23 PM 33.8 °F 26.4 °F 24.8 °F 70% 29.63 in 1.8 mi West 9.2 mph - 0.00 in Snow Light Snow
5:38 PM 33.8 °F 26.4 °F 24.8 °F 70% 29.63 in 1.2 mi West 9.2 mph - 0.00 in Snow Light Snow
5:47 PM 33.8 °F 25.3 °F 24.8 °F 70% 29.62 in 1.8 mi WSW 11.5 mph - 0.00 in Snow Light Snow
5:52 PM 33.1 °F 24.4 °F 24.1 °F 70% 29.65 in 2.0 mi West 11.5 mph - 0.00 in Snow Light Snow
6:14 PM 33.8 °F 25.3 °F 24.8 °F 70% 29.63 in 1.2 mi WSW 11.5 mph - 0.00 in Snow Light Snow
6:31 PM 32.0 °F 24.2 °F 24.8 °F 75% 29.63 in 0.8 mi WSW 9.2 mph 17.3 mph 0.00 in Snow Light Snow
6:37 PM 32.0 °F 23.6 °F 24.8 °F 75% 29.63 in 1.5 mi West 10.4 mph - 0.00 in Snow Light Snow
6:41 PM 32.0 °F 23.0 °F 24.8 °F 75% 29.63 in 3.0 mi West 11.5 mph 17.3 mph 0.00 in Snow Light Snow
6:52 PM 33.1 °F 22.2 °F 24.1 °F 70% 29.66 in 6.0 mi West 17.3 mph 27.6 mph 0.00 in Snow Light Snow
7:52 PM 34.0 °F 24.2 °F 23.0 °F 64% 29.66 in 5.0 mi West 15.0 mph 21.9 mph 0.00 in Snow Light Snow
7:55 PM 33.8 °F 23.2 °F 24.8 °F 70% 29.64 in 1.5 mi West 17.3 mph 21.9 mph 0.00 in Snow Light Snow
7:59 PM 33.8 °F 22.5 °F 24.8 °F 70% 29.64 in 1.2 mi WSW 19.6 mph 28.8 mph 0.00 in Snow Light Snow
8:01 PM 33.8 °F 23.2 °F 24.8 °F 70% 29.64 in 1.5 mi West 17.3 mph 28.8 mph 0.00 in Snow Light Snow
8:05 PM 33.8 °F 23.9 °F 24.8 °F 70% 29.64 in 4.0 mi West 15.0 mph 28.8 mph 0.00 in Snow Light Snow
8:11 PM 33.8 °F 24.3 °F 24.8 °F 70% 29.65 in 2.5 mi West 13.8 mph 23.0 mph 0.00 in Snow Light Snow
8:35 PM 33.8 °F 24.3 °F 24.8 °F 70% 29.65 in 8.0 mi West 13.8 mph 23.0 mph 0.00 in   Overcast
8:52 PM 34.0 °F 25.5 °F 24.1 °F 67% 29.68 in 4.0 mi West 11.5 mph 23.0 mph 0.00 in Snow Light Snow
9:04 PM 33.8 °F 25.3 °F 24.8 °F 70% 29.66 in 9.0 mi West 11.5 mph 20.7 mph 0.00 in   Overcast
9:52 PM 33.1 °F 22.6 °F 21.0 °F 61% 29.70 in 10.0 mi West 16.1 mph 34.5 mph 0.00 in   Overcast
10:52 PM 32.0 °F 20.5 °F 19.9 °F 61% 29.71 in 10.0 mi West 18.4 mph 27.6 mph N/A   Partly Cloudy
11:52 PM 30.9 °F 23.5 °F 21.0 °F 67% 29.74 in 10.0 mi NW 8.1 mph - N/A   Overcast